Waseca, MN

7:34 AM CST on February 24, 2017 (GMT -0600)
Waseca Municipal

Weather History for KACQ - February, 2014

Change the Weather History Date:

Sunday, February 9, 2014

  Actual Average Record
Temperature  
Mean Temperature 4 °F -  
Max Temperature 12 °F 21 °F 50 °F (1954)
Min Temperature -5 °F 1 °F -31 °F (1933)
Degree Days  
Heating Degree Days 62    
Moisture  
Dew Point -5 °F    
Average Humidity 75    
Maximum Humidity 85    
Minimum Humidity 61    
Precipitation  
Precipitation 0.00 in - - ()
Sea Level Pressure  
Sea Level Pressure 30.29 in    
Wind  
Wind Speed 11 mph (WNW)    
Max Wind Speed 18 mph    
Max Gust Speed 25 mph    
Visibility 9 miles    
Events Snow    
Averages and records for this station are not official NWS values.
T = Trace of Precipitation, MM = Missing Value Source: NWS Daily Summary

Daily Weather History Graph

Daily Weather History Graph

Search for Another Location

Airport or City:

Trip Planner

Search our weather history database for the weather conditions in past years. The results will help you decide how hot, cold, wet, or windy it might be!

Date:

Astronomy

Feb. 09, 2014 Rise Set
Actual Time 7:21 AM CST 5:35 PM CST
Civil Twilight 6:51 AM CST 6:05 PM CST
Nautical Twilight 6:17 AM CST 6:39 PM CST
Astronomical Twilight 5:44 AM CST 7:13 PM CST
Moon 1:12 PM CST (2/9) 3:31 AM CST (2/9)
Length of Visible Light 11h 13m
Length of Day
10h 13m
Waxing Gibbous, 77% of the Moon is Illuminated
Feb 9
Waxing Gibbous
Feb 14
Full
Feb 22
Last Quarter
Mar 1
New
Mar 8
First Quarter

Hourly Weather History & Observations

Time (CST) Temp. Windchill Dew Point Humidity Pressure Visibility Wind Dir Wind Speed Gust Speed Precip Events Conditions
12:16 AM 12.2 °F -1.0 °F 8.6 °F 85% 30.17 in 4.0 mi West 10.4 mph - N/A Snow Light Snow
12:36 AM 12.2 °F -1.0 °F 8.6 °F 85% 30.18 in 5.0 mi West 10.4 mph - N/A Snow Light Snow
12:56 AM 12.2 °F -0.2 °F 8.6 °F 85% 30.18 in 3.0 mi WNW 9.2 mph - N/A Snow Light Snow
1:15 AM 10.4 °F -3.3 °F 5.0 °F 79% 30.18 in 4.0 mi WNW 10.4 mph - N/A Snow Light Snow
1:36 AM 6.8 °F -11.3 °F 3.2 °F 85% 30.18 in 7.0 mi WNW 16.1 mph - N/A Snow Light Snow
1:55 AM 3.2 °F -15.3 °F -0.4 °F 85% 30.18 in 10.0 mi West 15.0 mph - N/A   Scattered Clouds
2:15 AM 3.2 °F -15.9 °F -0.4 °F 85% 30.20 in 10.0 mi West 16.1 mph - N/A   Scattered Clouds
2:36 AM 1.4 °F -17.6 °F -2.2 °F 85% 30.21 in 7.0 mi WNW 15.0 mph 23.0 mph N/A   Mostly Cloudy
2:56 AM -0.4 °F -18.4 °F -4.0 °F 85% 30.20 in 10.0 mi WNW 12.7 mph - N/A   Scattered Clouds
3:15 AM -0.4 °F -18.4 °F -5.8 °F 78% 30.20 in 10.0 mi WNW 12.7 mph - N/A   Clear
3:36 AM -0.4 °F -17.6 °F -5.8 °F 78% 30.20 in 10.0 mi WNW 11.5 mph - N/A   Clear
3:56 AM -0.4 °F -15.7 °F -5.8 °F 78% 30.20 in 10.0 mi WNW 9.2 mph - N/A   Clear
4:16 AM -4.0 °F -20.2 °F -7.6 °F 85% 30.21 in 10.0 mi West 9.2 mph - N/A   Clear
4:36 AM -4.0 °F -16.3 °F -7.6 °F 85% 30.21 in 4.0 mi West 5.8 mph - N/A Snow Light Snow
4:56 AM -4.0 °F -17.8 °F -9.4 °F 78% 30.22 in 5.0 mi WNW 6.9 mph - N/A   Haze
5:15 AM -5.8 °F -22.4 °F -11.2 °F 77% 30.22 in 4.0 mi WNW 9.2 mph - N/A Snow Light Snow
5:36 AM -5.8 °F -22.4 °F -11.2 °F 77% 30.23 in 5.0 mi WNW 9.2 mph - N/A   Haze
5:56 AM -5.8 °F -22.4 °F -9.4 °F 84% 30.22 in 10.0 mi NW 9.2 mph - N/A   Clear
6:16 AM -5.8 °F -18.4 °F -9.4 °F 84% 30.22 in 10.0 mi NW 5.8 mph - N/A   Clear
6:36 AM -4.0 °F -20.2 °F -9.4 °F 78% 30.22 in 10.0 mi NW 9.2 mph - N/A   Clear
6:55 AM -5.8 °F -19.9 °F -9.4 °F 84% 30.24 in 10.0 mi NW 6.9 mph - N/A   Clear
7:16 AM -5.8 °F -21.2 °F -11.2 °F 77% 30.25 in 10.0 mi WNW 8.1 mph - N/A   Clear
7:36 AM -5.8 °F -21.2 °F -11.2 °F 77% 30.27 in 10.0 mi West 8.1 mph - N/A   Clear
7:56 AM -5.8 °F -19.9 °F -11.2 °F 77% 30.27 in 10.0 mi WNW 6.9 mph - N/A   Clear
8:16 AM -5.8 °F -21.2 °F -11.2 °F 77% 30.27 in 10.0 mi WNW 8.1 mph - N/A   Clear
8:36 AM -5.8 °F -19.9 °F -9.4 °F 84% 30.27 in 10.0 mi WNW 6.9 mph - N/A   Clear
8:55 AM -4.0 °F -19.0 °F -7.6 °F 85% 30.27 in 10.0 mi WNW 8.1 mph - N/A   Clear
9:16 AM -0.4 °F -15.7 °F -5.8 °F 78% 30.28 in 10.0 mi NW 9.2 mph - N/A   Clear
9:36 AM -0.4 °F -15.7 °F -5.8 °F 78% 30.29 in 10.0 mi NW 9.2 mph - N/A   Clear
9:55 AM -0.4 °F -17.6 °F -5.8 °F 78% 30.29 in 10.0 mi NW 11.5 mph - N/A   Clear
10:16 AM 1.4 °F -16.9 °F -4.0 °F 78% 30.29 in 10.0 mi NW 13.8 mph - N/A   Clear
10:36 AM 1.4 °F -16.1 °F -4.0 °F 78% 30.30 in 10.0 mi NW 12.7 mph - N/A   Clear
10:55 AM 3.2 °F -13.1 °F -4.0 °F 72% 30.31 in 10.0 mi NW 11.5 mph - N/A   Clear
11:16 AM 3.2 °F -13.1 °F -4.0 °F 72% 30.32 in 10.0 mi WNW 11.5 mph - N/A   Clear
11:36 AM 5.0 °F -12.3 °F -4.0 °F 66% 30.32 in 10.0 mi WNW 13.8 mph - N/A   Clear
11:55 AM 5.0 °F -11.6 °F -4.0 °F 66% 30.31 in 10.0 mi NW 12.7 mph - N/A   Clear
12:16 PM 5.0 °F -12.3 °F -4.0 °F 66% 30.30 in 10.0 mi NW 13.8 mph - N/A   Clear
12:36 PM 5.0 °F -11.6 °F -4.0 °F 66% 30.30 in 10.0 mi NW 12.7 mph - N/A   Clear
12:55 PM 6.8 °F -10.0 °F -4.0 °F 61% 30.31 in 10.0 mi NW 13.8 mph - N/A   Clear
1:16 PM 6.8 °F -10.7 °F -4.0 °F 61% 30.31 in 10.0 mi WNW 15.0 mph - N/A   Clear
1:36 PM 6.8 °F -10.7 °F -4.0 °F 61% 30.30 in 10.0 mi WNW 15.0 mph - N/A   Clear
1:56 PM 6.8 °F -11.3 °F -4.0 °F 61% 30.31 in 10.0 mi WNW 16.1 mph 20.7 mph N/A   Clear
2:16 PM 6.8 °F -11.8 °F -4.0 °F 61% 30.30 in 10.0 mi NW 17.3 mph - N/A   Clear
2:36 PM 6.8 °F -12.4 °F -4.0 °F 61% 30.30 in 10.0 mi NW 18.4 mph - N/A   Clear
2:56 PM 6.8 °F -10.0 °F -2.2 °F 67% 30.31 in 10.0 mi WNW 13.8 mph - N/A   Clear
3:16 PM 6.8 °F -11.8 °F -2.2 °F 67% 30.31 in 10.0 mi WNW 17.3 mph - N/A   Clear
3:36 PM 6.8 °F -11.8 °F -2.2 °F 67% 30.31 in 10.0 mi WNW 17.3 mph 25.3 mph N/A   Clear
3:56 PM 6.8 °F -9.3 °F -2.2 °F 67% 30.32 in 10.0 mi WNW 12.7 mph - N/A   Clear
4:16 PM 5.0 °F -10.0 °F -2.2 °F 72% 30.32 in 7.0 mi WNW 10.4 mph - N/A   Clear
4:36 PM 6.8 °F -10.0 °F -0.4 °F 72% 30.32 in 10.0 mi WNW 13.8 mph - N/A   Clear
4:56 PM 5.0 °F -10.8 °F -2.2 °F 72% 30.32 in 10.0 mi WNW 11.5 mph - N/A   Clear
5:16 PM 5.0 °F -10.0 °F -2.2 °F 72% 30.32 in 10.0 mi WNW 10.4 mph - N/A   Clear
5:36 PM 3.2 °F -13.1 °F -4.0 °F 72% 30.32 in 10.0 mi WNW 11.5 mph - N/A   Clear
5:56 PM 3.2 °F -13.1 °F -2.2 °F 78% 30.33 in 10.0 mi WNW 11.5 mph - N/A   Clear
6:16 PM 3.2 °F -13.1 °F -2.2 °F 78% 30.34 in 10.0 mi WNW 11.5 mph - N/A   Clear
6:36 PM 3.2 °F -12.2 °F -4.0 °F 72% 30.34 in 10.0 mi NW 10.4 mph - N/A   Clear
6:56 PM 1.4 °F -13.5 °F -5.8 °F 72% 30.35 in 10.0 mi WNW 9.2 mph - N/A   Clear
7:16 PM 1.4 °F -14.5 °F -4.0 °F 78% 30.35 in 10.0 mi WNW 10.4 mph - N/A   Clear
7:36 PM -0.4 °F -14.7 °F -5.8 °F 78% 30.35 in 5.0 mi WNW 8.1 mph - N/A   Haze
7:55 PM -0.4 °F -17.6 °F -5.8 °F 78% 30.35 in 5.0 mi WNW 11.5 mph - N/A   Haze
8:16 PM -0.4 °F -17.6 °F -5.8 °F 78% 30.36 in 10.0 mi WNW 11.5 mph - N/A   Clear
8:36 PM -0.4 °F -14.7 °F -7.6 °F 72% 30.36 in 10.0 mi WNW 8.1 mph - N/A   Clear
8:56 PM -0.4 °F -17.6 °F -5.8 °F 78% 30.36 in 10.0 mi WNW 11.5 mph - N/A   Clear
9:16 PM -2.2 °F -16.8 °F -7.6 °F 78% 30.36 in 10.0 mi WNW 8.1 mph - N/A   Clear
9:36 PM -4.0 °F -20.2 °F -9.4 °F 78% 30.37 in 10.0 mi WNW 9.2 mph - N/A   Clear
9:56 PM -5.8 °F -22.4 °F -11.2 °F 77% 30.38 in 10.0 mi West 9.2 mph - N/A   Clear
10:16 PM -5.8 °F -19.9 °F -13.0 °F 71% 30.39 in 10.0 mi WSW 6.9 mph - N/A   Clear
10:36 PM -5.8 °F -22.4 °F -13.0 °F 71% 30.40 in 10.0 mi West 9.2 mph - N/A   Clear
10:55 PM -5.8 °F -22.4 °F -11.2 °F 77% 30.40 in 10.0 mi West 9.2 mph - N/A   Clear
11:16 PM -5.8 °F -22.4 °F -13.0 °F 71% 30.41 in 10.0 mi West 9.2 mph - N/A   Clear
11:36 PM -5.8 °F -22.4 °F -13.0 °F 71% 30.41 in 10.0 mi West 9.2 mph - N/A   Clear
11:56 PM -5.8 °F -22.4 °F -13.0 °F 71% 30.41 in 10.0 mi West 9.2 mph - N/A   Clear